Home   Weather   Prievidza   Past weeks

Flag for Slovakia Past Weather in Prievidza, Slovakia — Yesterday and Last 2 Weeks

Now
31 °F

Fog.


Feels Like: 27 °F
Forecast: 16 / 33 °F
Wind: 3 mph from South

Location: Prievidza

Current Time: Dec 6, 2016 at 7:10:39 pm

Latest Report: Dec 6, 2016 at 6:00 pm


Visibility: 4 mi

Pressure: 30.46 "Hg

Humidity: 82%

Dew Point: 26 °F

Location of PrievidzaLocation

Past Weather in Prievidza — Graph

°F

Prievidza Temperature Yesterday

Maximum temperature yesterday: 40 °F (at 3:00 pm)
Minimum temperature yesterday: 18 °F (at 6:00 am)
Average temperature yesterday: 25 °F

High & Low Weather Summary for the Past Weeks

 TemperatureHumidityPressure
High59 °F (Nov 22, 1:00 pm)98% (Nov 25, 7:00 am)30.58 "Hg (Nov 25, 7:00 am)
Low18 °F (Dec 5, 6:00 am)51% (Nov 29, 3:00 pm)29.65 "Hg (Dec 2, 6:00 am)
Average37 °F81%30.23 "Hg
* Reported Nov 21 6:00 pm — Dec 6 6:00 pm, Prievidza, Weather by CustomWeather, © 2016

Note: Actual official high and low records may vary slightly from our data, if they occured in-between our weather recording intervals... More about our weather records

Advertising

Prievidza Weather History for the Previous 24 Hours

Scroll right to see more
 ConditionsComfort  
Time TempWeatherWind HumidityBarometerVisibility
6:00 pm
Tue, Dec 6
31 °FFog.3 mph82%30.46 "Hg4 mi
5:00 pm31 °FChilly.3 mph79%30.44 "HgN/A
4:00 pm33 °FOvercast.2 mph73%30.40 "Hg8 mi
3:00 pm37 °FPartly sunny.2 mph64%30.37 "Hg10 mi
2:00 pm38 °FScattered clouds.N/A60%30.37 "Hg11 mi
1:00 pm35 °FPassing clouds.N/A72%30.39 "Hg11 mi
12:00 pm35 °FPassing clouds.N/A76%30.40 "Hg11 mi
11:00 am30 °FChilly.N/A77%30.41 "HgN/A
10:00 am26 °FPassing clouds.N/A88%30.42 "Hg9 mi
9:00 am22 °FPassing clouds.N/A88%30.42 "Hg7 mi
8:00 am21 °FScattered clouds.N/A87%30.41 "Hg7 mi
7:00 am21 °FFog.No wind94%30.40 "Hg5 mi
6:00 am23 °FCold.1 mph86%30.38 "Hg6 mi
5:00 am24 °FCold.N/A85%30.39 "Hg6 mi
2:00 am20 °FFog.No wind90%30.42 "Hg4 mi
1:00 am19 °FFog.No wind89%30.42 "Hg4 mi
12:00 am19 °FFog.No wind88%30.43 "Hg4 mi
11:00 pm
Mon, Dec 5
20 °FFog.No wind88%30.44 "Hg4 mi
10:00 pm22 °FFog.No wind88%30.45 "Hg4 mi
9:00 pm22 °FFog.No wind86%30.45 "Hg5 mi
8:00 pm23 °FFog.No wind85%30.45 "Hg5 mi
7:00 pm25 °FClear.No wind82%30.45 "Hg9 mi
Weather by CustomWeather, © 2016

See weather overviewHow to use our weather pages